Voltar ao catálogo

THORAD AGENA D DEB

AtivoSSO
NORAD 4685·DEBRIS·🇺🇸 United States

Lançado Apr 8, 1970 de Vandenberg Space Force Base

Loading…

Próximas Passagens (próximas 24 horas)

TLE

AtualizadoSource: Space-Track

Época: Sep 14, 2026, 05:08 UTC

1 04685U 70025BJ  26257.21424470  .00000200  00000-0  34471-3 0  9997
2 04685  99.9252 342.7977 0053839  68.1563 319.3508 13.56648748781587

Acompanhe THORAD AGENA D DEB em tempo real com AllMySat

Download on the App Store